TimeMDT,TemperatureF,Dew PointF,Humidity,Sea Level PressureIn,VisibilityMPH,Wind Direction,Wind SpeedMPH,Gust SpeedMPH,PrecipitationIn,Events,Conditions,WindDirDegrees,DateUTC
12:53 AM,42.1,33.1,70,29.99,10.0,SSE,8.1,-,N/A,,Clear,150,2012-10-31 06:53:00
1:53 AM,48.0,30.0,50,29.96,10.0,SW,4.6,-,N/A,,Clear,220,2012-10-31 07:53:00
2:53 AM,48.9,28.9,46,29.97,10.0,Variable,3.5,-,N/A,,Clear,0,2012-10-31 08:53:00
3:53 AM,51.1,28.0,41,29.95,10.0,Calm,Calm,-,N/A,,Clear,0,2012-10-31 09:53:00
4:53 AM,48.0,28.0,46,29.96,10.0,Calm,Calm,-,N/A,,Clear,0,2012-10-31 10:53:00
5:53 AM,45.0,28.0,52,30.03,10.0,Calm,Calm,-,N/A,,Clear,0,2012-10-31 11:53:00
6:53 AM,42.1,28.9,60,30.06,10.0,West,9.2,-,N/A,,Scattered Clouds,270,2012-10-31 12:53:00
7:53 AM,43.0,28.0,56,30.06,10.0,West,8.1,-,N/A,,Clear,270,2012-10-31 13:53:00
8:53 AM,54.0,28.9,38,30.04,10.0,NE,3.5,-,N/A,,Clear,40,2012-10-31 14:53:00
9:53 AM,61.0,30.0,31,30.04,10.0,Variable,4.6,-,N/A,,Clear,0,2012-10-31 15:53:00
10:53 AM,64.0,30.0,28,30.04,10.0,NW,5.8,-,N/A,,Clear,320,2012-10-31 16:53:00
11:53 AM,63.0,28.9,28,30.04,10.0,NW,5.8,-,N/A,,Clear,320,2012-10-31 17:53:00
12:53 PM,66.9,30.0,25,30.02,10.0,NNW,6.9,-,N/A,,Clear,340,2012-10-31 18:53:00
1:53 PM,68.0,30.9,25,29.99,10.0,Variable,5.8,-,N/A,,Clear,0,2012-10-31 19:53:00
2:53 PM,66.9,30.0,25,29.98,10.0,Variable,3.5,-,N/A,,Clear,0,2012-10-31 20:53:00
3:53 PM,68.0,32.0,26,29.96,10.0,Calm,Calm,-,N/A,,Clear,0,2012-10-31 21:53:00
4:53 PM,66.0,30.9,27,29.98,10.0,ESE,3.5,-,N/A,,Clear,110,2012-10-31 22:53:00
5:53 PM,53.1,33.1,47,30.02,10.0,Calm,Calm,-,N/A,,Clear,0,2012-10-31 23:53:00
6:53 PM,48.0,32.0,54,30.05,10.0,North,-9999.0,-,N/A,,Unknown,0,2012-11-01 00:53:00
7:53 PM,46.0,32.0,58,30.05,10.0,SW,3.5,-,N/A,,Clear,220,2012-11-01 01:53:00
8:53 PM,46.9,34.0,61,30.00,10.0,South,8.1,-,N/A,,Clear,180,2012-11-01 02:53:00
9:53 PM,50.0,34.0,54,29.96,10.0,SSE,11.5,-,N/A,,Clear,160,2012-11-01 03:53:00
10:53 PM,48.0,33.1,56,29.95,10.0,South,12.7,-,N/A,,Clear,170,2012-11-01 04:53:00
11:53 PM,50.0,32.0,50,29.92,10.0,South,15.0,-,N/A,,Clear,180,2012-11-01 05:53:00